[Date Prev][Date Next][Thread Prev][Thread Next] - [Date Index][Thread Index][Author Index]

2 Line ISS Keps 7-21



ISS
1 25544U 98067A   04203.40949078  .00018314  00000-0  15397-3 0  2718
2 25544  51.6313 151.1505 0006273  29.9661  66.0875 15.69927061323691
----
Via the sarex mailing list at AMSAT.ORG courtesy of AMSAT-NA.
To unsubscribe, send "unsubscribe sarex" to Majordomo@amsat.org



AMSAT Top AMSAT Home